EW5523 Weather Reports


time (UTC)temp
C
wind
direction
speed
KPH
gust
KPH
rain 1hr
cm
rain 24hr
cm
rain mn
cm
humidity
%
barometer
mb
20260503010011 2 222 0.0 0.0 0.00 0.00 0.00 66 1019.7
20260503004513 2 223 0.0 0.0 0.00 0.00 0.00 65 1019.6
20260503003009 2 223 0.0 0.0 0.00 0.00 0.00 64 1019.7
20260503001506 3 223 0.0 0.0 0.00 0.00 0.00 63 1019.7
20260503000005 3 222 0.0 0.0 0.00 0.00 0.00 62 1019.6
20260502234503 3 219 0.0 0.0 0.00 0.00 0.00 62 1019.6
20260502233002 3 212 0.0 0.0 0.00 0.00 0.00 61 1019.5
20260502231501 3 217 0.0 1.6 0.00 0.00 0.00 60 1019.6
20260502230100 3 213 0.0 0.0 0.00 0.00 0.00 60 1019.6
20260502224558 3 214 0.0 0.0 0.00 0.00 0.00 60 1019.5
20260502223057 3 213 0.0 0.0 0.00 0.00 0.00 59 1019.4
20260502221612 3 230 0.0 0.0 0.00 0.00 0.00 59 1019.4
20260502220101 4 232 0.0 0.0 0.00 0.00 0.00 58 1019.4
20260502214553 4 231 0.0 0.0 0.00 0.00 0.00 58 1019.3
20260502213052 4 230 0.0 0.0 0.00 0.00 0.00 58 1019.3
20260502211550 4 230 0.0 0.0 0.00 0.00 0.00 57 1019.4
20260502210107 4 222 0.0 0.0 0.00 0.00 0.00 57 1019.3
20260502204549 5 221 0.0 1.6 0.00 0.00 0.00 57 1019.2
20260502203048 5 226 0.0 0.0 0.00 0.00 0.00 57 1019.2
20260502201550 5 226 0.0 0.0 0.00 0.00 0.00 56 1019.1
20260502200059 5 218 0.0 1.6 0.00 0.00 0.00 56 1019.0
20260502194543 5 222 0.0 3.2 0.00 0.00 0.00 55 1019.1
20260502193044 5 231 0.0 0.0 0.00 0.00 0.00 55 1019.1
20260502191549 5 235 0.0 1.6 0.00 0.00 0.00 54 1019.0
20260502190047 5 239 0.0 0.0 0.00 0.00 0.00 54 1018.9
20260502184541 5 247 0.0 0.0 0.00 0.00 0.00 53 1018.8
20260502183040 6 208 0.0 4.8 0.00 0.00 0.00 52 1018.8
20260502181540 6 233 0.0 0.0 0.00 0.00 0.00 52 1018.8
20260502163045 7 239 0.0 0.0 0.00 0.00 0.00 47 1018.6
20260502161533 8 238 0.0 0.0 0.00 0.00 0.00 45 1018.4
20260502151554 9 258 0.0 0.0 0.00 0.00 0.00 41 1018.0
20260502123029 10 279 0.0 16.1 0.00 0.00 0.00 39 1018.2
20260502121524 10 320 1.6 17.7 0.00 0.00 0.00 39 1018.2
20260502114522 10 268 4.8 19.3 0.00 0.00 0.00 38 1018.1
20260502113032 10 273 4.8 19.3 0.00 0.00 0.00 38 1018.1
20260502111521 10 264 0.0 20.9 0.00 0.00 0.00 40 1018.2
20260502110030 10 235 1.6 14.5 0.00 0.00 0.00 40 1018.1
20260502104520 10 279 1.6 16.1 0.00 0.00 0.00 39 1018.2
20260502103020 10 280 8.0 19.3 0.00 0.00 0.00 39 1018.2
20260502101519 10 268 3.2 22.5 0.00 0.00 0.00 39 1018.2
20260502091515 10 257 0.0 11.3 0.00 0.00 0.00 40 1018.2
20260502071508 8 206 0.0 9.7 0.00 0.00 0.00 39 1018.1
20260502070015 8 290 0.0 6.4 0.00 0.00 0.00 40 1017.9
20260502064506 8 269 0.0 20.9 0.00 0.00 0.00 40 1018.0
20260502063008 8 305 0.0 4.8 0.00 0.00 0.00 40 1017.8
20260502061503 8 318 1.6 12.9 0.00 0.00 0.00 40 1017.8
20260502060101 8 301 3.2 12.9 0.00 0.00 0.00 44 1017.8
20260502054615 8 330 1.6 14.5 0.00 0.00 0.00 45 1017.8
20260502053057 7 311 0.0 16.1 0.00 0.00 0.00 48 1017.7
20260502051556 8 302 0.0 11.3 0.00 0.00 0.00 48 1017.8
20260502050053 8 299 1.6 14.5 0.00 0.00 0.00 48 1017.7
20260502044555 7 264 0.0 1.6 0.00 0.00 0.00 54 1017.7
20260502043048 7 314 0.0 8.0 0.00 0.00 0.00 54 1017.7
20260502041555 6 278 0.0 9.7 0.00 0.00 0.00 54 1017.6
20260502040016 5 268 0.0 0.0 0.00 0.00 0.00 61 1017.5
20260502034521 5 264 0.0 0.0 0.00 0.00 0.00 61 1017.5
20260502033015 4 276 0.0 0.0 0.00 0.00 0.00 64 1017.4
20260502031515 3 287 0.0 0.0 0.00 0.00 0.00 66 1017.5
20260502030013 3 297 0.0 0.0 0.00 0.00 0.00 66 1017.4
20260502024517 3 294 0.0 0.0 0.00 0.00 0.00 68 1017.3
20260502023011 2 293 0.0 0.0 0.00 0.00 0.00 68 1017.1
20260502021510 2 293 0.0 0.0 0.00 0.00 0.00 70 1017.0
20260502020009 1 293 0.0 0.0 0.00 0.00 0.00 72 1016.9
20260502014514 1 299 0.0 0.0 0.00 0.00 0.00 74 1016.7
20260502013006 1 299 0.0 0.0 0.00 0.00 0.00 74 1016.6
20260502011505 1 299 0.0 0.0 0.00 0.00 0.00 72 1016.5